Content
SEND FEEDBACK

Daily
Averages
Monthly
Summary
France

ROUEN, FRANCE


Home > Europe > France
Elevation: 515 feet     Latitude: 49 23N     Longitude: 001 11E

WEATHER
 
SELECT A DAY
Number of Records: 182,588;   Date Range: 7/1/96 - 11/23/14
 
SHARE

PRINT THIS DATA

[ ← Previous Day ]
WEATHER ALMANAC - MARCH 5, 2013
[ Next Day → ]
[ °C ]   °F
Weather ElementAverageHighLow
Temperature49.1 °F59 °F (2:00 pm)39.2 °F (7:00 am)
Dewpoint36.3 °F39.2 °F (5:00 pm)33.8 °F (3:00 am)
Humidity61.7 %81 % (7:00 am)33 % (1:00 pm)
Barometer29.67 in29.76 in (1:00 am)29.59 in (4:30 pm)
Wind Speed8.9 mph12.7 mph (12:00 pm)
Weather ElementAverage
Visibility6.6 mi
Wind DirectionESE (127.1 °)

Weather ElementTotal
Precipitation---
Heating Degree Days15.9 (Base 65)
Averaged from 51 records on March 5, 2013
WEATHER CONDITIONS BREAKOUT
WIND DIRECTION BREAKOUT
WEATHER BY HOUR - MARCH 5, 2013
[ °C ]   °F
Local TimeTemperatureDewpointHumidityBarometerVisibilityWind DirectionWind SpeedGust SpeedPrecipitationEventsConditions
12:30 AM44.6 °F37.4 °F76 %29.74 in5.0 miESE (120°)10.4 mph
1:00 AM45.0 °F36.0 °F62 %29.76 in6.0 miSE (130°)10.4 mphClear
1:00 AM44.6 °F35.6 °F71 %29.74 in5.6 miSE (130°)10.4 mph
1:30 AM44.6 °F35.6 °F71 %29.74 in6.2 miSE (130°)11.5 mph
2:00 AM44.6 °F35.6 °F71 %29.74 in6.2 miSE (130°)10.4 mph
2:30 AM42.8 °F35.6 °F76 %29.74 in6.2 miSE (130°)10.4 mph
3:00 AM42.8 °F33.8 °F70 %29.74 in6.2 miSE (140°)8.1 mph
3:30 AM42.8 °F33.8 °F70 %29.74 in6.2 miSE (140°)8.1 mph
4:00 AM42.8 °F33.8 °F70 %29.71 in6.2 miSE (140°)8.1 mph
4:30 AM42.8 °F33.8 °F70 %29.71 in6.2 miESE (110°)6.9 mph
5:00 AM42.8 °F33.8 °F70 %29.71 in6.2 miESE (110°)6.9 mph
5:30 AM41.0 °F33.8 °F76 %29.71 in6.2 miESE (120°)5.8 mph
6:00 AM41.0 °F33.8 °F76 %29.71 in6.2 miESE (120°)6.9 mph
6:30 AM41.0 °F33.8 °F76 %29.71 in6.2 miESE (120°)6.9 mph
7:00 AM40.0 °F34.0 °F71 %29.74 in6.0 miSE (130°)6.9 mph
7:00 AM39.2 °F33.8 °F81 %29.71 in5.6 miSE (130°)6.9 mph
7:30 AM41.0 °F33.8 °F76 %29.71 in6.2 miESE (120°)8.1 mph
8:00 AM41.0 °F33.8 °F76 %29.71 in5.6 miESE (110°)8.1 mph
8:30 AM42.8 °F35.6 °F76 %29.71 in6.2 miSE (130°)8.1 mph
9:00 AM42.8 °F35.6 °F76 %29.71 in6.2 miESE (120°)8.1 mph
9:30 AM44.6 °F35.6 °F71 %29.71 in6.2 miSE (130°)8.1 mph
10:00 AM48.2 °F35.6 °F62 %29.71 in6.2 miESE (120°)8.1 mph
10:30 AM50.0 °F35.6 °F58 %29.71 in6.2 miSE (130°)9.2 mph
11:00 AM50.0 °F33.8 °F54 %29.71 in6.2 miSE (140°)9.2 mph
11:30 AM51.8 °F35.6 °F54 %29.71 in6.2 miSE (140°)10.4 mph
12:00 PM55.4 °F35.6 °F47 %29.68 in6.2 miSSE (150°)12.7 mph
12:30 PM55.4 °F35.6 °F47 %29.68 in6.2 miSE (140°)11.5 mph
1:00 PM57.0 °F36.0 °F33 %29.68 in11.0 miSSE (150°)12.7 mphClear
1:00 PM57.2 °F35.6 °F44 %29.68 in6.2 miSSE (150°)11.5 mph
1:30 PM57.2 °F35.6 °F44 %29.65 in6.2 miSE (140°)10.4 mph
2:00 PM59.0 °F35.6 °F42 %29.65 in6.2 miSSE (150°)10.4 mph
2:30 PM55.4 °F35.6 °F47 %29.65 in6.2 miSE (140°)10.4 mph
3:00 PM55.4 °F35.6 °F47 %29.62 in6.2 miESE (120°)10.4 mph
3:30 PM55.4 °F37.4 °F51 %29.62 in6.2 miESE (120°)10.4 mph
4:00 PM57.2 °F37.4 °F48 %29.62 in6.2 miESE (120°)10.4 mph
4:30 PM55.4 °F37.4 °F51 %29.59 in6.2 miESE (110°)9.2 mph
5:00 PM55.4 °F39.2 °F54 %29.59 in6.2 miESE (110°)8.1 mph
5:30 PM53.6 °F39.2 °F58 %29.59 in6.2 miEast (100°)9.2 mph
6:00 PM55.4 °F39.2 °F54 %29.59 in6.2 miSE (130°)11.5 mph
6:30 PM53.6 °F39.2 °F58 %29.59 in6.2 miSE (130°)6.9 mph
7:00 PM54.0 °F38.0 °F44 %29.61 in25.0 miSE (140°)9.2 mphClear
7:00 PM53.6 °F39.2 °F58 %29.59 in6.2 miSE (140°)9.2 mph
7:30 PM53.6 °F39.2 °F58 %29.59 in6.2 miESE (120°)8.1 mph
8:00 PM51.8 °F39.2 °F62 %29.59 in6.2 miESE (120°)9.2 mph
8:30 PM53.6 °F37.4 °F54 %29.59 in6.2 miSE (130°)10.4 mph
9:00 PM53.6 °F37.4 °F54 %29.59 in6.2 miSE (130°)8.1 mph
9:30 PM50.0 °F39.2 °F66 %29.59 in6.2 miESE (110°)6.9 mph
10:00 PM50.0 °F39.2 °F66 %29.59 in6.2 miESE (120°)5.8 mph
10:30 PM50.0 °F39.2 °F66 %29.59 in6.2 miESE (110°)5.8 mph
11:00 PM50.0 °F39.2 °F66 %29.59 in6.2 miESE (110°)5.8 mph
11:30 PM50.0 °F39.2 °F66 %29.59 in6.2 miESE (120°)6.9 mph
Hourly data recorded from LFOP, located miles away from Rouen, France







STORIES FROM OUR PARTNERS